Hatteras, NC

6:30 AM EDT on October 19, 2019 (GMT -0400)
Mitchell

Weather History for KHSE - August, 2019

Change the Weather History Date:

Wednesday, August 7, 2019

  Actual Average Record
Temperature  
Mean Temperature 80 °F 79 °F  
Max Temperature 87 °F 85 °F 94 °F (1968)
Min Temperature 72 °F 73 °F 60 °F (1957)
Degree Days  
Heating Degree Days 0 0  
Month to date heating degree days 0 0  
Since 1 June heating degree days 0 3  
Since 1 July heating degree days 0 0  
Cooling Degree Days 14 14  
Month to date cooling degree days 110 98  
Year to date cooling degree days 1410 986  
Since 1 June cooling degree days 1028 843  
Growing Degree Days 30 (Base 50)    
Moisture  
Dew Point 74 °F    
Average Humidity 84    
Maximum Humidity 96    
Minimum Humidity 68    
Precipitation  
Precipitation 0.44 in 0.21 in 1.57 in (1946)
Month to date precipitation 2.54 1.43  
Year to date precipitation 34.26 31.69  
Snow  
Snow 0.00 in - - ()
Month to date snowfall 0.0  
Since 1 July snowfall 0.0  
Snow Depth 0.00 in    
Sea Level Pressure  
Sea Level Pressure 29.90 in    
Wind  
Wind Speed 8 mph ()    
Max Wind Speed 21 mph    
Max Gust Speed 31 mph    
Visibility 8.1 miles    
Events Rain , Thunderstorm    
T = Trace of Precipitation, MM = Missing Value Source: Averaged Metar Reports

Daily Weather History Graph

Daily Weather History Graph

Search for Another Location

Airport or City:

Astronomy

Aug. 07, 2019 Rise Set
Actual Time 6:15 AM EDT 8:00 PM EDT
Civil Twilight 5:48 AM EDT 8:27 PM EDT
Nautical Twilight 5:15 AM EDT 9:00 PM EDT
Astronomical Twilight 4:39 AM EDT 9:35 PM EDT
Moon 1:28 PM EDT (8/7) No Moon Set
Length of Visible Light 14h 39m
Length of Day
13h 44m
Waxing Crescent, 49% of the Moon is Illuminated
Aug 7
Waxing Crescent
Aug 7
First Quarter
Aug 15
Full
Aug 23
Last Quarter
Aug 30
New

Hourly Weather History & Observations

Time (EDT) Temp. Heat Index Dew Point Humidity Pressure Visibility Wind Dir Wind Speed Gust Speed Precip Events Conditions
12:51 AM 80.1 °F 84.5 °F 73.9 °F 81% 29.91 in 10.0 mi WSW 9.2 mph - N/A   Clear
1:51 AM 80.1 °F 84.5 °F 73.9 °F 81% 29.91 in 10.0 mi WSW 6.9 mph - N/A   Clear
2:51 AM 79.0 °F - 73.9 °F 84% 29.91 in 10.0 mi West 5.8 mph - N/A   Clear
3:51 AM 79.0 °F - 75.0 °F 88% 29.91 in 9.0 mi WSW 6.9 mph - N/A   Clear
4:51 AM 79.0 °F - 75.0 °F 88% 29.91 in 9.0 mi WSW 4.6 mph - N/A   Clear
5:51 AM 78.1 °F - 75.0 °F 90% 29.92 in 7.0 mi WSW 4.6 mph - N/A   Clear
6:51 AM 78.1 °F - 75.9 °F 93% 29.91 in 3.0 mi WSW 3.5 mph - N/A   Clear
7:51 AM 81.0 °F 87.3 °F 75.9 °F 85% 29.93 in 10.0 mi WSW 5.8 mph - N/A   Clear
8:51 AM 82.9 °F 90.8 °F 75.9 °F 79% 29.94 in 10.0 mi SW 5.8 mph - N/A   Clear
9:51 AM 84.0 °F 92.6 °F 75.9 °F 76% 29.94 in 10.0 mi SSW 6.9 mph - N/A   Clear
10:51 AM 82.0 °F 90.2 °F 77.0 °F 85% 29.94 in 10.0 mi SSW 8.1 mph - N/A   Scattered Clouds
11:51 AM 84.9 °F 96.6 °F 78.1 °F 80% 29.94 in 10.0 mi SSW 8.1 mph - N/A   Clear
12:51 PM 86.0 °F 96.9 °F 77.0 °F 74% 29.92 in 10.0 mi South 10.4 mph - N/A   Clear
1:51 PM 87.1 °F 98.8 °F 77.0 °F 72% 29.89 in 10.0 mi South 11.5 mph - N/A   Clear
2:51 PM 87.1 °F 97.3 °F 75.9 °F 69% 29.87 in 10.0 mi South 16.1 mph - N/A   Clear
3:51 PM 87.1 °F 97.3 °F 75.9 °F 69% 29.87 in 10.0 mi SSW 12.7 mph 21.9 mph N/A   Clear
4:51 PM 86.0 °F 96.9 °F 77.0 °F 74% 29.84 in 10.0 mi SSW 13.8 mph 19.6 mph N/A   Clear
5:51 PM 84.9 °F 95.3 °F 77.0 °F 77% 29.84 in 9.0 mi SSW 15.0 mph 21.9 mph N/A   Partly Cloudy
6:51 PM 84.0 °F 92.6 °F 75.9 °F 76% 29.85 in 9.0 mi SW 12.7 mph - N/A   Clear
7:51 PM 82.0 °F 90.2 °F 77.0 °F 85% 29.85 in 8.0 mi SSW 10.4 mph - N/A   Clear
8:51 PM 82.0 °F 91.0 °F 78.1 °F 88% 29.88 in 8.0 mi WSW 8.1 mph - N/A   Clear
9:33 PM 73.9 °F - 70.0 °F 87% 29.91 in 1.8 mi NW 15.0 mph 31.1 mph 0.06 in Rain Heavy Rain
9:40 PM 73.9 °F - 71.1 °F 91% 29.92 in 2.0 mi NW 10.4 mph 24.2 mph 0.13 in Rain Light Rain
9:48 PM 73.4 °F - 71.6 °F 94% 29.91 in 10.0 mi NW 11.5 mph 19.6 mph 0.13 in Rain Light Rain
9:51 PM 73.9 °F - 71.1 °F 91% 29.91 in 10.0 mi NW 8.1 mph 19.6 mph 0.13 in Rain Light Rain
10:51 PM 73.0 °F - 72.0 °F 96% 29.89 in 6.0 mi Calm Calm - 0.01 in Thunderstorm Clear
11:04 PM 73.9 °F - 71.1 °F 91% 29.90 in 8.0 mi West 8.1 mph - 0.00 in Rain , Thunderstorm Light Thunderstorms and Rain
11:20 PM 73.9 °F - 71.1 °F 91% 29.89 in 1.8 mi WSW 12.7 mph 23.0 mph 0.09 in Rain , Thunderstorm Heavy Thunderstorms and Rain
11:38 PM 73.0 °F - 71.1 °F 93% 29.85 in 3.0 mi South 18.4 mph - 0.30 in Rain , Thunderstorm Thunderstorms and Rain
11:47 PM 73.4 °F - 69.8 °F 88% 29.87 in 7.0 mi SW 17.3 mph 28.8 mph 0.30 in Rain , Thunderstorm Light Rain
11:51 PM 73.0 °F - 70.0 °F 90% 29.88 in 10.0 mi SW 15.0 mph 28.8 mph 0.30 in Rain , Thunderstorm Light Thunderstorms and Rain
11:58 PM 73.9 °F - 70.0 °F 87% 29.88 in 8.0 mi SSW 16.1 mph 24.2 mph 0.00 in Rain , Thunderstorm Thunderstorms and Rain